Wind_Speed
106 106 105 105 105 106 107 108 109 110 112 114 116 118 120 122 123 125 126 127 129 131 133 135 138 141 143 144 144 145 145 145 145 145 144 144 144 144 144 144 144 144 144 145 145 146 145 146 146 145 144 144 144 144 143 142 141 141 141 141 141 141 140
106 106 106 106 106 105 106 107 108 109 111 113 116 118 120 122 124 125 126 127 128 130 132 134 136 139 142 144 145 146 146 147 147 147 147 147 146 146 146 146 146 146 146 146 147 147 147 147 147 146 145 145 145 146 146 145 144 144 143 143 142 142 142
106 106 105 105 105 105 105 105 107 109 110 112 114 117 119 122 124 126 127 128 128 129 130 132 134 137 140 142 145 146 148 148 149 149 149 149 149 149 149 149 149 148 148 148 149 149 150 150 149 148 148 147 148 149 149 149 148 148 147 147 146 145 145
104 103 103 104 104 104 104 104 105 107 109 111 113 115 118 120 123 125 127 128 128 129 130 131 132 134 137 140 142 145 147 149 150 151 151 152 152 152 152 152 152 151 151 151 152 152 153 153 153 152 152 151 151 152 152 152 152 152 151 151 151 150 149
102 102 102 103 103 103 103 104 105 106 109 111 113 114 116 118 120 123 125 127 128 129 129 130 131 132 134 137 139 142 145 147 149 151 152 153 154 154 154 154 154 154 154 154 155 155 156 156 156 156 156 155 155 155 156 156 155 155 155 155 154 154 153
101 102 102 102 102 103 103 104 105 106 108 110 112 113 115 116 118 120 122 125 127 128 129 129 130 131 132 134 136 138 141 144 147 150 152 153 155 155 156 156 156 156 156 156 156 157 158 159 159 159 159 159 158 158 158 158 158 158 157 157 157 157 156
100 101 101 101 101 102 103 104 105 106 108 110 111 113 114 115 116 118 120 122 124 126 127 128 129 130 131 132 134 136 138 141 144 147 149 151 153 155 156 157 157 157 157 157 158 158 159 159 160 160 161 160 160 160 160 160 160 160 160 159 159 159 158
99 100 100 101 101 102 103 104 105 106 107 109 111 112 113 114 115 117 118 120 122 123 125 126 128 129 130 131 133 134 136 138 140 143 146 148 150 153 155 156 157 158 158 158 159 159 159 160 160 161 161 161 161 161 161 161 161 161 161 161 161 161 160
99 100 100 100 101 102 103 104 105 106 107 109 110 112 113 114 114 116 117 119 120 121 123 124 126 128 129 131 132 133 134 136 138 140 143 145 147 149 151 153 155 156 157 158 159 159 160 160 161 161 162 162 162 162 162 162 162 162 162 162 162 162 162
99 100 100 101 101 102 103 104 106 107 108 109 110 111 112 113 114 116 117 118 119 120 121 123 124 126 128 129 131 132 133 135 136 138 140 142 144 146 148 150 152 153 154 156 157 158 159 160 161 161 162 162 163 163 163 163 163 162 162 162 163 163 162
98 99 100 100 100 101 102 104 105 106 108 109 109 110 111 113 114 116 117 118 118 119 120 121 123 125 126 128 129 131 132 134 135 137 138 140 141 143 145 146 148 150 151 153 154 155 157 158 159 160 161 162 162 163 163 163 163 163 163 163 163 163 163
97 98 99 99 100 100 101 103 104 106 107 108 109 109 110 112 114 116 117 118 118 119 120 121 122 123 125 126 128 130 131 132 134 135 136 138 139 140 142 143 145 146 148 150 151 152 154 155 156 157 159 159 160 161 161 162 162 162 162 162 162 163 163
97 97 98 99 99 100 100 102 103 105 106 108 108 108 109 111 114 115 117 117 118 119 120 121 122 123 124 125 127 128 129 131 132 134 135 136 137 138 140 141 143 144 145 147 148 149 150 151 153 154 155 156 157 157 158 159 160 160 161 161 161 161 162
96 97 97 98 99 100 100 101 103 104 105 107 108 107 108 110 113 115 116 117 118 119 120 121 122 123 123 124 126 127 128 130 131 132 133 134 136 137 138 140 141 142 143 144 145 146 148 149 150 151 152 153 153 154 154 155 156 157 158 159 159 159 159
95 96 97 98 99 100 100 101 102 103 104 105 106 106 108 109 112 114 116 117 118 119 120 121 121 122 123 124 125 126 127 129 130 131 132 133 134 135 137 138 139 140 141 142 143 144 145 147 148 149 149 150 150 151 152 153 153 154 155 155 155 155 155
95 95 96 97 98 99 100 100 101 102 102 103 104 104 106 108 110 112 114 116 117 118 119 120 121 121 122 123 125 126 127 128 129 129 130 131 133 134 135 136 137 138 139 140 141 142 143 144 146 147 147 148 148 149 149 150 150 151 151 151 151 151 152
93 93 94 95 96 97 98 99 100 100 101 101 101 101 103 105 108 110 112 114 116 117 118 119 119 120 121 122 124 125 126 127 128 128 129 130 131 132 133 134 135 137 138 139 140 141 142 142 143 144 145 145 145 146 146 147 147 147 148 148 147 148 148
91 91 92 92 93 94 95 96 97 98 99 99 99 98 99 101 104 107 109 111 113 114 116 117 118 119 120 121 122 123 125 126 126 127 127 128 129 130 132 133 134 135 136 137 138 138 139 140 141 141 142 142 143 143 144 144 144 144 144 144 144 144 144
90 90 90 91 92 92 93 94 95 97 98 98 98 98 97 98 101 103 105 106 108 110 112 114 116 117 118 119 120 122 123 124 125 124 124 125 127 129 131 132 132 133 134 135 136 136 137 138 138 139 140 140 141 141 142 142 142 142 142 142 141 141 141
88 90 91 91 92 92 93 93 94 95 96 98 99 99 97 97 99 101 102 103 105 106 108 110 112 114 116 117 119 120 121 123 123 122 121 123 125 127 128 129 130 131 132 133 134 135 136 136 137 137 138 138 139 139 140 140 140 140 140 140 139 139 138
87 89 90 91 91 92 92 93 94 95 95 96 97 98 98 98 99 101 102 102 104 104 105 107 109 110 112 114 116 118 120 121 121 121 120 122 123 124 125 125 126 127 129 130 131 132 134 134 135 136 136 136 137 137 138 138 138 138 138 137 137 137 136
84 86 88 89 90 91 91 92 93 94 95 95 96 96 96 97 98 99 100 102 103 104 105 106 107 108 110 112 113 115 117 119 120 120 120 121 121 122 122 122 123 124 125 126 127 128 129 131 132 133 133 134 135 135 136 136 136 136 135 135 134 134 134
82 84 85 87 88 89 90 90 91 93 93 94 94 94 95 95 95 96 97 99 100 102 104 105 106 107 108 110 112 113 115 116 117 118 119 119 119 119 120 120 121 121 122 123 124 125 126 127 128 129 130 131 131 132 132 133 133 133 133 133 132 131 131
81 82 84 85 87 88 89 89 91 92 93 93 93 94 94 94 94 94 95 95 97 98 100 101 103 104 106 108 110 111 113 114 114 115 116 116 116 117 117 117 118 119 120 121 122 123 124 125 126 126 127 128 128 129 129 129 130 130 130 130 130 129 129
80 81 82 83 85 86 87 88 90 91 92 92 92 93 94 94 94 94 94 94 95 96 97 98 99 101 103 105 107 108 110 111 111 112 113 113 114 114 114 115 115 116 117 118 119 120 121 122 123 124 124 124 125 126 126 127 127 127 127 127 127 127 126
80 80 81 82 82 84 85 87 88 89 90 90 90 91 92 92 93 93 93 94 94 95 96 96 98 99 101 102 103 104 106 107 108 109 110 111 112 112 112 112 112 113 113 114 115 116 117 118 119 120 121 121 121 122 122 123 123 123 123 124 124 123 123
79 79 80 80 81 82 84 86 88 88 88 88 88 89 90 90 91 92 92 92 93 94 95 95 96 98 99 99 100 101 103 104 106 107 108 108 109 109 109 110 110 110 110 110 111 112 113 114 116 117 117 117 118 118 119 120 120 120 120 120 120 120 120
78 78 79 79 80 82 83 85 87 87 87 87 86 87 87 88 89 90 90 91 92 93 93 94 95 96 96 97 98 100 101 102 103 104 105 106 106 107 107 107 108 108 108 108 109 109 110 111 112 113 113 114 114 115 116 117 117 117 117 117 118 117 117
77 77 78 79 79 81 82 84 85 87 87 86 86 86 86 86 87 88 89 90 91 92 91 91 93 94 95 96 97 97 99 100 100 102 103 103 104 104 105 105 106 106 107 107 107 107 108 108 109 110 110 111 111 112 113 114 114 114 114 115 115 115 114
77 77 78 79 79 81 82 83 85 86 87 87 86 86 85 86 86 87 88 89 90 90 90 90 92 93 94 94 95 95 96 97 98 99 100 101 101 102 102 103 103 104 104 105 105 105 106 106 107 107 108 108 109 109 110 111 112 112 112 112 112 112 112
76 77 78 79 80 81 82 83 84 86 87 87 87 86 86 87 87 88 88 89 90 90 90 91 92 93 93 94 94 95 95 95 96 97 98 98 99 99 100 100 101 102 102 103 103 104 104 104 105 105 105 106 106 107 108 109 109 110 110 110 110 110 110
76 77 78 79 80 81 82 83 83 84 85 86 86 86 86 86 87 87 88 89 89 90 90 91 92 92 93 93 94 94 95 95 96 96 97 97 98 98 98 98 99 99 100 100 101 102 102 103 103 103 103 103 104 104 105 106 107 107 107 108 108 107 107
76 76 77 78 78 79 80 81 82 82 82 83 83 84 84 84 84 85 85 86 87 87 88 89 89 90 91 91 92 93 93 94 94 95 95 96 97 97 97 97 97 97 98 98 99 100 100 101 101 101 101 101 102 102 103 104 105 106 106 106 105 105 105
74 74 75 76 77 77 78 79 80 80 80 80 81 81 81 82 82 82 82 83 83 84 84 85 86 86 87 88 88 89 90 91 91 92 93 94 94 95 96 96 95 95 95 96 96 97 98 98 99 98 98 98 99 99 100 101 102 103 103 103 103 103 104
71 72 73 74 75 76 77 78 78 78 78 78 78 79 79 80 81 81 81 81 81 81 82 82 82 83 84 84 85 86 87 87 88 88 89 90 91 92 93 93 93 93 93 93 93 94 95 96 96 96 96 96 96 97 97 98 99 99 100 100 100 100 100
70 69 70 71 73 75 77 77 77 77 77 77 77 77 78 79 79 80 79 79 79 79 80 80 80 81 81 81 82 83 83 84 84 85 86 87 87 88 89 89 90 90 89 90 90 91 92 92 93 94 94 94 94 95 95 96 96 96 96 96 96 96 97
Wind_Direction
262 262 261 260 258 257 256 255 254 253 252 250 249 248 247 247 247 246 246 245 245 245 245 245 245 245 246 246 247 247 248 248 248 248 248 249 250 251 251 252 253 254 254 255 256 256 257 257 258 259 260 260 261 261 261 261 261 262 262 263 263 264 265
262 261 260 260 259 257 256 255 254 253 252 251 249 248 247 247 247 247 247 246 245 245 245 245 245 245 245 245 246 247 247 248 248 248 248 248 249 249 250 251 252 253 254 255 256 257 257 258 258 259 260 261 261 262 263 263 263 263 263 263 263 264 264
262 261 260 259 258 257 256 255 254 253 252 251 250 249 248 247 247 247 247 247 246 246 245 245 245 245 245 245 245 246 246 247 248 248 248 248 249 249 249 250 251 252 252 253 254 256 257 258 258 259 259 260 261 262 262 263 264 264 264 264 264 264 265
261 260 260 259 258 257 255 254 253 253 252 251 250 249 248 248 247 247 246 247 247 247 246 246 245 245 245 245 245 245 246 246 247 247 248 248 249 249 249 249 250 250 251 252 253 254 255 256 257 258 258 259 260 260 261 262 263 263 264 265 265 265 266
260 259 258 257 256 255 254 253 252 251 251 251 250 249 249 248 248 247 247 247 247 247 247 247 246 246 245 245 245 245 246 246 247 247 248 248 249 249 249 250 250 250 251 251 252 253 254 255 256 257 257 258 259 259 260 261 262 262 263 264 265 265 266
259 258 257 256 255 254 253 252 251 250 250 250 250 250 249 249 248 248 248 247 247 247 247 247 247 247 246 246 246 245 246 246 246 247 247 248 248 249 249 250 250 250 251 251 251 252 253 254 255 256 256 257 258 259 259 260 261 262 263 263 264 265 265
258 257 256 255 254 254 253 252 251 250 250 250 250 250 249 249 249 249 248 248 248 248 248 247 247 247 247 247 246 246 246 246 246 247 247 248 248 249 249 250 250 251 251 251 252 252 253 253 254 255 256 257 258 258 259 260 261 262 262 263 264 265 265
257 256 256 255 254 253 252 252 251 251 250 250 250 250 249 249 249 249 249 249 249 249 248 248 248 248 248 248 247 247 247 247 247 247 247 247 248 248 249 250 250 251 251 251 252 252 253 253 254 255 256 257 257 258 258 259 260 261 262 263 263 264 265
256 256 255 254 254 253 252 252 251 251 250 250 250 250 250 250 249 249 249 249 249 249 249 249 249 249 249 248 248 248 248 248 248 248 248 248 248 248 249 249 250 250 251 251 252 252 253 253 254 254 255 256 257 257 258 259 259 260 261 262 262 263 264
256 256 255 254 254 253 252 252 251 251 250 250 250 250 250 250 250 250 250 249 249 250 250 250 250 250 250 249 249 249 249 249 249 249 249 249 249 249 249 250 250 251 251 251 252 252 253 253 254 254 255 255 256 257 258 258 259 260 260 261 262 262 263
256 256 256 255 254 253 253 252 252 251 251 251 250 250 250 250 251 251 251 250 250 250 250 250 250 250 250 250 250 250 250 250 250 249 249 249 250 250 250 250 251 251 252 252 252 252 253 253 254 254 255 255 256 257 257 258 259 259 260 261 261 262 263
256 256 256 256 255 254 253 253 252 252 252 251 251 250 250 251 251 251 251 251 251 250 250 250 250 250 251 251 251 251 251 251 251 251 251 251 251 251 251 251 251 252 252 252 253 253 253 254 254 254 255 255 256 257 257 258 259 259 260 260 261 261 262
256 256 256 256 256 255 254 254 253 252 252 252 251 251 251 251 251 252 252 252 252 252 251 251 251 251 251 251 251 252 252 252 252 252 252 252 252 252 252 252 252 252 252 253 253 253 254 254 254 255 255 256 256 256 257 258 258 259 260 260 261 261 262
257 257 257 257 256 256 255 255 254 253 253 252 252 251 251 251 252 252 252 252 252 252 253 252 252 252 252 252 252 252 252 252 253 253 253 253 253 253 253 253 253 253 253 253 254 254 254 255 255 255 255 256 256 256 257 257 258 258 259 259 260 261 261
258 257 257 257 257 257 257 256 256 255 254 254 253 252 252 251 252 252 253 253 253 253 253 253 253 253 253 253 253 253 253 253 253 253 253 253 254 254 254 254 254 255 255 255 255 255 255 255 256 256 256 256 257 257 257 257 258 258 259 259 260 261 261
259 259 259 258 258 258 258 258 258 257 256 256 255 254 253 253 252 253 253 254 254 254 254 254 254 254 254 254 254 254 254 253 253 254 254 254 254 255 255 255 255 256 256 256 256 256 256 256 257 257 257 257 257 258 258 258 259 259 260 260 260 261 261
261 261 261 260 260 260 260 260 259 259 259 258 257 256 255 254 254 254 254 254 254 255 255 255 255 255 255 255 255 255 255 255 255 254 254 255 255 255 256 256 256 256 256 256 257 257 257 257 258 258 258 259 259 259 259 260 260 260 261 261 261 262 262
262 262 262 261 261 261 261 261 261 261 261 260 259 258 257 256 256 255 255 255 255 256 256 256 256 256 256 256 256 256 256 256 256 255 255 255 255 256 256 256 256 256 257 257 257 257 258 258 259 259 259 260 260 260 260 260 261 261 261 261 262 262 262
262 262 261 261 261 260 260 260 260 260 260 260 260 259 258 257 257 257 256 256 256 256 256 257 257 257 257 257 257 257 257 257 257 256 256 256 256 256 256 256 256 257 257 257 258 258 258 258 258 259 259 259 260 260 260 261 261 261 261 261 262 262 262
259 260 260 260 260 260 259 259 258 258 258 258 258 258 257 257 257 257 257 256 256 256 256 256 257 257 258 258 258 258 258 258 258 258 257 257 257 257 257 257 257 257 257 258 258 258 259 259 259 259 259 259 260 260 260 260 261 261 261 261 262 262 262
259 260 260 260 261 261 260 260 260 259 259 258 258 258 257 257 256 257 257 257 256 256 255 255 256 256 256 257 257 258 258 258 258 258 258 257 257 257 257 258 257 258 258 258 258 259 259 260 260 260 260 260 260 260 261 261 261 261 261 261 262 262 262
261 261 261 262 262 262 262 262 261 261 261 260 260 259 258 258 257 257 256 257 257 257 256 256 256 256 256 256 256 256 257 257 258 258 257 257 257 257 257 258 258 258 258 258 258 259 259 260 260 260 260 260 261 261 261 261 262 262 262 262 262 262 262
262 262 262 262 262 262 262 262 262 262 262 262 261 261 260 259 259 258 257 257 257 257 257 257 257 257 257 257 257 257 257 257 257 257 258 258 258 258 258 258 258 258 258 258 259 259 259 259 259 259 260 260 260 260 260 261 261 261 261 261 261 261 261
262 262 261 261 261 261 261 261 262 262 262 262 262 262 261 261 260 259 259 258 258 257 257 257 258 258 258 258 258 258 258 258 258 258 258 259 259 258 258 258 258 258 258 259 259 259 259 259 259 259 259 259 260 260 260 260 260 260 261 261 261 261 260
264 263 262 262 262 262 262 262 261 261 261 261 261 262 262 262 261 261 260 260 259 258 258 258 258 257 257 257 257 258 258 259 259 259 259 259 259 259 259 259 258 258 258 258 259 259 259 259 260 260 260 260 260 260 260 260 260 260 260 261 261 261 260
265 265 264 264 264 263 263 263 262 262 261 261 261 262 262 262 262 262 262 261 261 260 260 259 259 258 258 258 258 258 259 259 259 259 260 260 260 260 259 259 259 259 259 259 259 259 259 260 260 260 260 260 261 261 261 261 261 261 261 261 261 261 261
267 266 266 266 265 265 265 264 264 263 263 262 262 262 262 262 262 262 262 262 261 261 260 260 260 259 259 259 259 259 259 259 259 259 259 260 260 260 260 260 260 260 260 260 259 259 259 260 260 260 260 261 261 261 261 261 261 261 261 261 261 261 261
268 268 267 267 267 266 266 266 265 265 265 264 263 263 263 262 262 262 262 262 262 261 261 261 260 260 260 260 260 259 259 259 260 260 260 260 260 260 261 261 261 261 261 260 260 260 260 260 260 260 260 261 261 261 261 261 261 261 261 261 261 261 261
269 268 268 267 267 266 266 266 266 266 266 265 265 264 263 263 263 263 263 262 262 262 261 261 261 261 261 260 260 260 260 260 260 260 260 260 260 261 261 261 261 261 261 261 261 260 260 260 260 260 260 261 261 261 261 261 261 261 261 261 261 261 261
268 268 267 267 266 266 266 266 266 266 266 266 266 265 265 264 264 264 263 263 263 263 263 262 262 261 261 261 261 260 260 260 260 260 260 260 260 260 261 261 261 261 261 261 261 261 260 260 260 260 260 260 260 261 261 261 261 262 262 262 262 262 262
268 268 268 267 267 266 266 265 265 266 266 266 266 266 265 265 265 264 264 264 264 264 263 263 263 263 263 263 263 262 262 262 261 261 261 261 261 261 260 260 261 261 261 261 261 261 261 260 260 260 260 260 260 260 260 261 261 261 261 261 262 262 262
270 269 269 268 268 268 267 267 266 266 266 266 266 266 266 265 265 264 264 264 264 264 264 264 263 263 263 264 264 264 263 263 263 263 263 263 263 262 262 261 261 261 261 261 261 261 261 261 261 260 260 261 261 261 261 261 261 261 261 261 261 261 261
271 271 270 270 269 269 269 268 268 268 268 268 267 267 267 266 266 265 264 264 264 264 264 264 263 263 263 263 263 263 263 263 264 264 264 264 264 264 263 263 263 262 262 262 262 262 262 262 262 261 261 261 261 261 261 261 261 261 261 261 261 261 261
272 272 272 272 271 271 270 270 270 269 269 269 268 268 268 268 267 266 266 265 265 264 264 264 264 263 263 263 263 263 263 263 263 263 263 263 263 263 264 264 263 263 263 263 263 263 263 263 263 263 262 262 262 261 261 261 261 261 261 261 261 261 261
272 272 272 272 272 272 271 271 270 270 270 269 269 269 269 269 268 268 267 267 266 266 265 265 264 264 264 263 263 263 263 263 262 262 262 262 262 262 263 263 263 263 263 263 263 263 263 263 263 263 263 263 263 262 262 261 261 261 261 261 261 261 261
273 272 271 271 272 272 272 272 271 271 271 270 270 270 269 269 269 269 268 268 267 267 267 266 266 265 265 264 264 264 264 263 263 263 263 263 262 262 262 262 263 263 263 263 263 263 263 263 263 263 263 263 263 262 262 262 262 261 261 261 261 261 261
Height
10185 10185 10186 10186 10187 10188 10190 10191 10193 10195 10197 10199 10201 10204 10207 10209 10211 10214 10216 10219 10222 10225 10227 10230 10233 10235 10238 10240 10243 10246 10249 10253 10255 10257 10259 10261 10264 10266 10268 10270 10273 10276 10276 10275 10276 10278 10280 10280 10281 10284 10286 10288 10288 10289 10294 10297 10299 10301 10303 10305 10306 10307 10309
10166 10167 10167 10168 10169 10170 10172 10173 10175 10177 10179 10181 10183 10186 10188 10191 10193 10195 10198 10200 10203 10207 10210 10213 10215 10218 10220 10223 10226 10229 10231 10234 10237 10240 10242 10244 10247 10250 10251 10253 10256 10259 10261 10260 10259 10260 10262 10263 10266 10269 10271 10272 10273 10272 10274 10277 10280 10283 10286 10289 10290 10292 10294
10148 10149 10150 10151 10152 10153 10154 10155 10157 10158 10161 10163 10165 10167 10169 10172 10174 10177 10179 10182 10185 10188 10191 10195 10198 10200 10203 10205 10208 10211 10214 10216 10219 10222 10224 10227 10229 10231 10233 10236 10239 10242 10245 10246 10245 10244 10245 10246 10249 10252 10255 10256 10257 10256 10257 10259 10260 10263 10266 10269 10272 10274 10277
10131 10131 10132 10133 10134 10135 10136 10138 10139 10140 10141 10144 10146 10148 10150 10153 10156 10159 10161 10163 10166 10169 10172 10176 10179 10182 10185 10188 10191 10194 10196 10199 10201 10203 10206 10208 10211 10213 10215 10217 10221 10224 10227 10229 10229 10229 10228 10229 10231 10234 10237 10239 10240 10241 10241 10243 10244 10245 10247 10249 10251 10255 10258
10112 10112 10113 10114 10115 10116 10118 10119 10120 10121 10123 10124 10127 10130 10132 10135 10137 10140 10143 10145 10148 10150 10153 10157 10160 10164 10167 10170 10174 10176 10179 10181 10183 10185 10187 10190 10192 10194 10196 10199 10203 10206 10209 10211 10213 10213 10212 10212 10214 10216 10219 10221 10224 10225 10225 10226 10228 10230 10231 10232 10234 10236 10239
10093 10094 10095 10096 10097 10098 10100 10101 10102 10104 10105 10106 10109 10111 10114 10117 10119 10121 10124 10126 10129 10132 10135 10138 10141 10144 10148 10151 10155 10158 10161 10163 10164 10166 10168 10171 10173 10176 10178 10181 10185 10188 10191 10194 10196 10197 10197 10197 10197 10199 10202 10203 10206 10209 10210 10210 10212 10214 10215 10217 10218 10220 10222
10075 10075 10076 10078 10080 10081 10082 10084 10085 10087 10089 10090 10091 10094 10096 10099 10101 10103 10105 10108 10111 10114 10117 10120 10123 10126 10129 10132 10135 10138 10141 10144 10145 10147 10149 10152 10155 10157 10159 10162 10166 10169 10173 10176 10179 10181 10182 10183 10182 10183 10185 10187 10189 10193 10195 10195 10197 10198 10199 10201 10203 10204 10205
10057 10058 10059 10061 10063 10064 10065 10066 10068 10070 10072 10073 10075 10077 10079 10082 10084 10085 10087 10090 10093 10096 10099 10101 10104 10107 10110 10113 10116 10119 10122 10124 10126 10128 10130 10133 10136 10138 10140 10143 10146 10150 10154 10157 10160 10163 10165 10167 10168 10168 10169 10171 10173 10176 10179 10180 10182 10184 10184 10185 10187 10188 10189
10040 10040 10042 10044 10046 10047 10048 10049 10051 10053 10055 10057 10059 10060 10063 10066 10067 10068 10070 10072 10075 10078 10081 10084 10086 10089 10091 10094 10097 10100 10103 10105 10108 10110 10112 10114 10117 10119 10121 10124 10127 10131 10135 10138 10142 10144 10146 10149 10151 10152 10154 10155 10155 10158 10161 10163 10166 10169 10169 10169 10171 10172 10173
10023 10024 10025 10027 10029 10030 10031 10033 10034 10036 10038 10041 10043 10045 10047 10049 10050 10051 10053 10056 10059 10062 10064 10066 10068 10070 10072 10075 10078 10082 10084 10087 10089 10091 10094 10096 10099 10101 10103 10106 10109 10112 10116 10119 10122 10125 10128 10130 10132 10134 10136 10138 10139 10140 10143 10146 10148 10152 10154 10154 10155 10155 10156
10007 10008 10009 10011 10013 10015 10016 10016 10018 10020 10022 10024 10027 10030 10033 10033 10034 10034 10036 10039 10043 10045 10047 10049 10051 10053 10055 10057 10060 10063 10066 10068 10070 10073 10076 10078 10081 10083 10086 10089 10092 10095 10097 10100 10103 10106 10108 10111 10113 10115 10117 10120 10122 10123 10126 10128 10130 10133 10136 10138 10139 10139 10138
9992 9992 9993 9995 9997 9999 10000 10001 10002 10003 10005 10007 10011 10017 10019 10018 10017 10018 10019 10023 10026 10027 10030 10032 10034 10036 10038 10040 10042 10044 10048 10050 10052 10055 10058 10061 10064 10066 10068 10071 10074 10077 10079 10081 10084 10087 10089 10092 10094 10097 10099 10102 10105 10107 10109 10111 10113 10115 10117 10119 10120 10122 10122
9977 9978 9979 9979 9981 9983 9984 9985 9986 9988 9990 9991 9995 10002 10005 10003 10001 10001 10003 10006 10009 10010 10013 10015 10017 10019 10021 10023 10025 10027 10030 10032 10034 10037 10040 10043 10046 10048 10050 10053 10055 10058 10060 10062 10065 10068 10071 10073 10076 10079 10081 10083 10086 10091 10093 10095 10096 10096 10097 10099 10100 10102 10104
9962 9963 9964 9964 9965 9967 9968 9970 9970 9972 9974 9975 9979 9986 9990 9988 9985 9984 9986 9990 9992 9993 9995 9997 10000 10002 10004 10007 10009 10011 10013 10014 10016 10020 10023 10025 10027 10029 10031 10033 10036 10039 10042 10045 10047 10050 10053 10054 10056 10058 10061 10063 10067 10072 10075 10077 10077 10076 10077 10079 10081 10084 10085
9948 9949 9949 9950 9950 9950 9952 9953 9953 9955 9958 9959 9964 9970 9972 9972 9971 9969 9970 9972 9974 9976 9977 9980 9982 9985 9987 9990 9992 9993 9995 9996 9999 10002 10005 10007 10009 10011 10014 10016 10018 10021 10024 10027 10029 10031 10033 10034 10035 10038 10040 10044 10048 10051 10053 10054 10056 10057 10059 10061 10064 10067 10068
9933 9934 9935 9935 9936 9936 9937 9938 9937 9939 9941 9943 9948 9954 9955 9955 9956 9956 9955 9956 9956 9958 9961 9963 9965 9968 9971 9972 9973 9974 9976 9978 9982 9986 9988 9989 9992 9994 9997 9998 10001 10003 10005 10007 10009 10011 10013 10014 10016 10017 10020 10024 10028 10030 10032 10034 10037 10040 10042 10045 10048 10050 10051
9918 9919 9920 9921 9922 9922 9922 9923 9922 9923 9925 9927 9932 9937 9940 9940 9941 9941 9941 9940 9941 9942 9944 9946 9948 9950 9953 9954 9955 9956 9956 9959 9964 9968 9971 9974 9976 9977 9979 9981 9983 9984 9985 9987 9989 9991 9993 9995 9997 9999 10001 10005 10008 10011 10014 10016 10018 10021 10023 10027 10031 10033 10034
9903 9904 9905 9906 9907 9907 9908 9908 9908 9907 9908 9910 9914 9919 9924 9926 9926 9925 9925 9926 9927 9928 9929 9929 9930 9932 9934 9936 9937 9937 9938 9940 9943 9949 9954 9958 9960 9960 9960 9961 9964 9965 9966 9968 9971 9973 9975 9977 9979 9981 9983 9986 9988 9991 9994 9995 9998 10001 10003 10008 10013 10015 10017
9887 9888 9889 9890 9891 9892 9893 9893 9893 9893 9892 9893 9895 9900 9906 9910 9909 9907 9909 9911 9913 9914 9914 9914 9915 9916 9916 9918 9919 9920 9920 9921 9923 9930 9938 9941 9941 9940 9939 9941 9946 9948 9947 9950 9953 9954 9957 9959 9960 9962 9965 9967 9969 9971 9972 9974 9977 9981 9983 9987 9992 9995 9999
9872 9872 9873 9874 9874 9875 9876 9877 9877 9877 9877 9877 9878 9881 9887 9892 9892 9890 9892 9894 9896 9897 9899 9899 9900 9900 9900 9900 9902 9902 9902 9902 9903 9911 9921 9922 9918 9918 9921 9925 9930 9930 9929 9932 9935 9935 9937 9939 9941 9943 9945 9947 9949 9951 9952 9954 9957 9960 9963 9967 9972 9975 9978
9858 9858 9858 9859 9860 9860 9861 9862 9862 9862 9862 9862 9863 9864 9869 9874 9875 9874 9876 9877 9877 9879 9882 9883 9883 9884 9884 9884 9884 9884 9883 9883 9884 9892 9900 9899 9896 9899 9904 9908 9911 9912 9912 9915 9917 9917 9918 9920 9921 9923 9926 9927 9929 9930 9932 9934 9936 9940 9944 9947 9952 9956 9958
9845 9845 9844 9844 9845 9845 9846 9847 9847 9846 9846 9846 9847 9849 9852 9855 9857 9858 9860 9861 9861 9862 9864 9866 9867 9867 9867 9867 9867 9867 9866 9865 9866 9871 9875 9877 9878 9883 9886 9888 9892 9895 9896 9897 9898 9899 9901 9901 9901 9903 9905 9907 9909 9910 9911 9914 9916 9919 9923 9927 9933 9937 9939
9831 9831 9830 9830 9830 9830 9831 9832 9831 9831 9831 9831 9832 9833 9835 9837 9840 9842 9844 9846 9847 9846 9847 9849 9850 9850 9850 9850 9850 9850 9849 9849 9850 9852 9854 9857 9861 9865 9868 9871 9874 9877 9877 9878 9879 9880 9882 9883 9882 9883 9885 9886 9888 9890 9892 9895 9897 9899 9901 9905 9911 9915 9919
9816 9816 9816 9815 9815 9815 9816 9817 9816 9815 9815 9816 9818 9818 9818 9820 9823 9826 9828 9830 9831 9831 9832 9833 9833 9834 9834 9834 9833 9832 9832 9833 9835 9836 9838 9840 9844 9848 9851 9854 9856 9858 9859 9860 9861 9861 9862 9864 9864 9863 9865 9867 9868 9870 9873 9875 9877 9878 9880 9883 9888 9893 9897
9801 9801 9801 9802 9801 9801 9801 9801 9800 9800 9800 9802 9803 9803 9803 9805 9807 9809 9811 9813 9814 9815 9815 9817 9818 9817 9817 9816 9815 9815 9816 9817 9819 9821 9822 9824 9826 9829 9832 9834 9836 9839 9840 9841 9843 9843 9844 9845 9845 9844 9847 9850 9851 9851 9853 9854 9856 9860 9862 9864 9867 9871 9876
9787 9787 9787 9788 9788 9787 9786 9784 9784 9784 9785 9787 9789 9789 9789 9791 9792 9793 9795 9796 9797 9798 9799 9800 9801 9799 9799 9799 9800 9802 9803 9803 9803 9804 9804 9805 9807 9809 9812 9814 9817 9820 9823 9824 9826 9826 9827 9828 9827 9827 9829 9832 9833 9834 9835 9835 9837 9841 9843 9844 9846 9851 9855
9773 9773 9773 9774 9774 9773 9771 9768 9767 9767 9770 9773 9775 9775 9775 9776 9777 9778 9779 9780 9781 9782 9782 9783 9783 9783 9783 9785 9786 9786 9786 9786 9786 9786 9787 9788 9789 9792 9795 9797 9799 9802 9804 9807 9808 9809 9810 9810 9810 9810 9812 9814 9815 9817 9817 9817 9819 9822 9824 9825 9827 9831 9836
9760 9760 9760 9761 9760 9758 9757 9754 9752 9751 9753 9756 9759 9761 9761 9762 9762 9763 9764 9765 9764 9764 9765 9766 9767 9767 9768 9769 9769 9769 9769 9769 9769 9770 9771 9772 9774 9776 9778 9780 9781 9784 9785 9787 9789 9791 9792 9793 9793 9794 9795 9796 9798 9799 9798 9799 9801 9804 9805 9806 9807 9811 9816
9747 9747 9747 9747 9746 9744 9742 9740 9738 9737 9737 9739 9742 9745 9746 9747 9747 9748 9749 9748 9747 9747 9749 9752 9752 9751 9750 9751 9752 9753 9753 9754 9754 9755 9755 9756 9758 9759 9761 9763 9764 9766 9767 9769 9771 9773 9774 9775 9776 9777 9778 9779 9781 9781 9781 9781 9783 9785 9786 9788 9789 9792 9797
9734 9733 9733 9732 9732 9730 9729 9727 9725 9723 9723 9724 9726 9729 9731 9731 9732 9732 9732 9732 9731 9732 9735 9736 9735 9734 9734 9734 9736 9737 9738 9739 9739 9739 9739 9740 9742 9743 9745 9746 9747 9749 9750 9751 9752 9755 9756 9757 9759 9760 9761 9763 9765 9765 9765 9765 9765 9767 9769 9770 9772 9775 9778
9721 9720 9719 9718 9717 9715 9715 9714 9712 9710 9709 9710 9712 9713 9715 9716 9716 9716 9716 9716 9716 9717 9718 9718 9718 9718 9718 9719 9720 9721 9722 9722 9723 9723 9724 9724 9725 9727 9729 9730 9731 9732 9733 9734 9735 9737 9738 9740 9741 9743 9744 9746 9748 9749 9749 9748 9749 9750 9752 9753 9755 9758 9760
9707 9706 9705 9704 9702 9701 9699 9698 9698 9697 9696 9696 9697 9698 9699 9700 9700 9701 9701 9701 9701 9701 9702 9702 9703 9703 9703 9704 9705 9705 9705 9706 9706 9707 9708 9708 9708 9709 9712 9714 9715 9716 9717 9718 9719 9719 9720 9722 9724 9727 9728 9730 9731 9732 9733 9732 9732 9733 9735 9736 9739 9741 9743
9692 9692 9690 9689 9688 9687 9685 9683 9683 9683 9683 9683 9683 9683 9684 9684 9684 9685 9686 9686 9686 9686 9687 9687 9687 9688 9688 9689 9689 9689 9689 9690 9691 9691 9692 9692 9692 9692 9694 9696 9698 9699 9701 9702 9703 9703 9703 9704 9707 9710 9712 9713 9714 9715 9717 9716 9715 9716 9718 9720 9723 9725 9726
9679 9678 9676 9674 9673 9672 9671 9669 9668 9669 9669 9669 9669 9669 9668 9668 9668 9669 9670 9670 9671 9671 9672 9672 9672 9673 9673 9674 9674 9674 9674 9675 9676 9677 9677 9676 9676 9677 9677 9678 9681 9683 9685 9686 9687 9687 9687 9687 9689 9692 9694 9696 9697 9698 9699 9699 9698 9699 9701 9704 9706 9708 9709
9668 9667 9665 9662 9660 9658 9656 9655 9654 9655 9655 9655 9655 9655 9654 9653 9652 9653 9654 9655 9656 9656 9656 9656 9657 9658 9658 9659 9659 9658 9659 9660 9661 9661 9662 9661 9662 9662 9662 9662 9664 9667 9669 9671 9671 9672 9672 9672 9673 9674 9676 9678 9679 9679 9680 9681 9681 9682 9684 9687 9689 9692 9693
9654 9655 9654 9652 9649 9645 9642 9641 9641 9641 9641 9641 9642 9642 9641 9639 9638 9638 9639 9640 9642 9642 9642 9641 9642 9643 9643 9644 9644 9644 9644 9645 9645 9646 9646 9646 9647 9647 9647 9648 9650 9652 9654 9656 9656 9657 9657 9657 9657 9658 9659 9660 9662 9661 9662 9663 9665 9666 9668 9670 9673 9676 9678